Location: *
(51.5000°N, 0.1100°W)
Time: 21:26:40
(UTC+00:00)

CZ-2D R/B - Pass Details

Date: 25 May 2024
Orbit: 790 x 843 km, 98.8° (Epoch: 16 June)

Event Time Altitude Azimuth Distance (km) Brightness Sun altitude
Rises 01:06:49 0° 22° (NNE) 3,413 7.2 -15.9°
Reaches altitude 10° 01:09:33 10° 34° (NE) 2,470 5.8 -15.8°
Maximum altitude 01:14:12 28° 93° (E) 1,530 3.7 -15.6°
Drops below altitude 10° 01:18:48 10° 151° (SSE) 2,435 4.2 -15.3°
Enters shadow 01:18:50 10° 151° (SSE) 2,442 4.2 -15.3°
